Regional Weather Roundup
Issued by NWS New Orleans/Baton Rouge, LA

Home | Current Version | Previous Version | Text Only | Print | Product List | Glossary On
Versions: 1 2 3 4 5 6 7 8 9 10 11 12 13 14 15 16 17 18 19 20 21 22 23 24 25 26 27 28 29 30 31 32 33 34 35 36 37 38 39 40 41 42 43 44 45 46 47 48 49 50
000
ASUS44 KLIX 022311
RWRLIX
NEW ORLEANS REGIONAL WEATHER ROUNDUP
NATIONAL WEATHER SERVICE NEW ORLEANS LA
600 PM CDT THU JUL 02 2015

NOTE: "FAIR" INDICATES FEW OR NO CLOUDS BELOW 12,000 FEET WITH NO
      SIGNIFICANT WEATHER AND/OR OBSTRUCTIONS TO VISIBILITY.
      SKY/WX - SKY CONDITION AND SIGNIFICANT WEATHER.
      TMP - AIR TEMPERATURE.     DP    - DEWPOINT TEMPERATURE.
      RH  - RELATIVE HUMIDITY.   PRES  - PRESSURE.
      HI  - HEAT INDEX.          WCI   - WIND CHILL INDEX.

*  THESE STATIONS ARE NOT NWS OR FAA STATIONS AND ARE NOT UNDER
   NWS QUALITY CONTROL.

LAZ038-040-048-061>063-065>067-069-030000-
SOUTHEAST LOUISIANA

CITY           SKY/WX    TMP DP  RH WIND       PRES   REMARKS
N.O. AUDUBON   NOT AVBL
N.O. INTL ARPT PTSUNNY   89  72  56 S13       30.02F HX  96
N.O. LAKEFRONT PTSUNNY   92  69  47 SW14      30.02F HX  97
N.O. DOWNTOWN*   N/A     91  70  49 SW9G17    30.03F HX  97
RESERVE*         N/A     91  71  52 SW13      30.02F HX  97
SLIDELL        PTSUNNY   90  77  65 S8        30.01F HX 103
BATON ROUGE    PTSUNNY   89  72  56 SW10      30.01F HX  96
BOOTHVILLE     PTSUNNY   86  76  71 S9        30.05F HX  96
BELLE CHASSE   PTSUNNY   86  73  65 SW9       30.03S
BOGALUSA*        N/A     90  73  57 SW8       30.03F HX  98
GALLIANO*      PTCLDY    88  74  62 MISG      30.04F HX  96
NEW ROADS*       N/A    N/A N/A N/A S6        30.01F
GONZALES*        N/A     85  74  69 SW5       30.01F
HAMMOND*       PTSUNNY   90  73  58 S6        30.03F HX  98
HOUMA*         MOSUNNY   86  75  70 S8        30.04F HX  95
PORT FOURCHON* MOCLDY    86  75  70 S8        30.05F HX  95

$$

MSZ070-080>082-030000-
SOUTHERN MISSISSIPPI

CITY           SKY/WX    TMP DP  RH WIND       PRES   REMARKS
MCCOMB         PTSUNNY   86  75  69 S6        30.02F HX  95
GULFPORT       PTSUNNY   86  77  74 S3        30.03F HX  97
BILOXI         PTSUNNY   85  79  82 SW12      30.03F HX  98
PASCAGOULA     MOSUNNY   85  77  77 SW7       30.04F HX  95
STENNIS ARPT*  MOSUNNY   86  72  62 MISG      30.03F

$$

COASTAL OBSERVATIONS
LAKE AND NEARSHORE STATIONS

STATION/POSITION TIME  TEMP    WIND        PRES    WAVE
                       AIR SEA DIR/SP/G            HT/PER
                 (UTC) (F)     (DEG/KT/KT) (MB)    (FT/S)
PASCAGOULA       2200   86     230/ 12/ 16 1017.2
WAVELAND YACHT   2200   87 85  230/  7/ 12 1017.5
GRAND ISLE       2200   86 86  210/  6/  9 1017.9
SOUTHWEST PASS   2200   86 83  190/  7/  9 1018.5
NEW CANAL        2200   88 85  220/  9/ 14 1016.3
SHELL BEACH      2200   87 84  190/ 10/ 15 1016.7

OFFSHORE STATIONS

STATION/POSITION TIME  TEMP    WIND        PRES    WAVE
                       AIR SEA DIR/SP/G            HT/PER
                 (UTC) (F)     (DEG/KT/KT) (MB)    (FT/S)
64 S DAUPHIN ISL 2250   85 85  190/  6/  6 1018.2    1/ 6

$$



USA.gov is the U.S. government's official web portal to all federal, state and local government web resources and services.